Location: Unspecified
(0.0000°N, 0.0000°E)
Time: 04:04:17
(UTC+00:00)

DMSP 5D-2 F-14 - Pass Details

Date: 03 June 2023
Orbit: 831 x 845 km, 98.9° (Epoch: 28 September)

Event Time Altitude Azimuth Distance (km) Brightness Sun altitude
Exits shadow 20:38:56 34° 308° (NW) 1,345 6.1 -36.6°
Drops below altitude 10° 20:42:11 10° 331° (NNW) 2,429 7.6 -37.3°
Sets 20:44:36 0° 337° (NNW) 3,360 8.4 -37.9°
